Location: Newark
(45.2500°N, 7.5833°E)
Time: 08:20:54
(UTC+00:00)

First-Move - Pass Details

Date: 01 March 2020
Orbit: 576 x 669 km, 97.6° (Epoch: 04 April)

Event Time Altitude Azimuth Distance (km) Brightness Sun altitude
Rises 18:05:23 0° 217° (SW) 2,938 ? -9.2°
Reaches altitude 10° 18:08:53 10° 247° (WSW) 2,055 ? -9.9°
Maximum altitude 18:10:48 13° 273° (W) 1,903 ? -10.2°
Drops below altitude 10° 18:12:44 10° 298° (WNW) 2,081 ? -10.5°
Sets 18:16:20 0° 328° (NNW) 3,013 ? -11.2°
